QPF
0.00 0.00 0.01 0.01 0.01 0.01 0.00 0.00 0.01 0.01 0.01 0.01 0.01 0.00 0.00 0.00 0.00 0.00 0.00 0.00 0.00 0.01 0.02 0.03 0.04 0.05 0.03 0.01 0.00 0.00 0.00 0.00 0.00 0.00 0.00 0.00 0.00 0.00 0.00 0.00 0.00 0.00 0.00
0.00 0.00 0.01 0.01 0.01 0.01 0.00 0.00 0.00 0.01 0.01 0.01 0.01 0.01 0.00 0.00 0.00 0.00 0.00 0.00 0.00 0.01 0.02 0.04 0.04 0.03 0.01 0.00 0.00 0.00 0.00 0.00 0.00 0.00 0.00 0.00 0.00 0.00 0.00 0.00 0.00 0.00 0.00
0.00 0.00 0.01 0.01 0.01 0.00 0.00 0.00 0.00 0.01 0.01 0.01 0.01 0.01 0.00 0.00 0.00 0.00 0.00 0.00 0.00 0.01 0.01 0.02 0.02 0.01 0.00 0.00 0.00 0.00 0.00 0.00 0.00 0.00 0.00 0.00 0.00 0.00 0.00 0.00 0.00 0.00 0.00
0.00 0.00 0.00 0.00 0.00 0.00 0.00 0.00 0.00 0.00 0.01 0.01 0.01 0.01 0.00 0.00 0.00 0.00 0.00 0.00 0.00 0.00 0.00 0.00 0.00 0.00 0.00 0.00 0.00 0.00 0.00 0.00 0.00 0.00 0.00 0.00 0.00 0.00 0.00 0.00 0.00 0.00 0.00
0.00 0.00 0.00 0.00 0.00 0.00 0.00 0.00 0.00 0.00 0.01 0.01 0.01 0.00 0.00 0.00 0.00 0.00 0.00 0.00 0.00 0.00 0.00 0.00 0.00 0.00 0.00 0.00 0.00 0.00 0.00 0.00 0.00 0.00 0.00 0.00 0.00 0.00 0.00 0.00 0.00 0.00 0.00
0.00 0.00 0.00 0.00 0.00 0.00 0.00 0.00 0.00 0.00 0.01 0.01 0.00 0.00 0.00 0.00 0.00 0.00 0.00 0.00 0.00 0.00 0.00 0.00 0.00 0.00 0.00 0.00 0.00 0.00 0.00 0.00 0.00 0.00 0.00 0.00 0.00 0.01 0.01 0.01 0.02 0.02 0.02
0.00 0.00 0.00 0.00 0.00 0.00 0.00 0.00 0.00 0.00 0.00 0.00 0.00 0.00 0.00 0.00 0.00 0.00 0.00 0.00 0.00 0.00 0.00 0.00 0.00 0.00 0.00 0.00 0.00 0.00 0.00 0.00 0.00 0.00 0.00 0.00 0.00 0.00 0.01 0.01 0.01 0.02 0.02
0.00 0.00 0.00 0.00 0.00 0.00 0.00 0.00 0.00 0.00 0.00 0.00 0.00 0.00 0.00 0.00 0.00 0.00 0.00 0.00 0.00 0.00 0.00 0.00 0.00 0.00 0.00 0.00 0.00 0.00 0.00 0.00 0.00 0.00 0.00 0.00 0.00 0.00 0.00 0.00 0.01 0.01 0.02
0.00 0.00 0.00 0.00 0.00 0.00 0.00 0.00 0.00 0.00 0.00 0.00 0.00 0.00 0.00 0.00 0.00 0.00 0.00 0.00 0.00 0.00 0.00 0.00 0.00 0.00 0.00 0.00 0.00 0.00 0.00 0.00 0.00 0.00 0.00 0.00 0.00 0.00 0.01 0.01 0.02 0.03 0.03
0.01 0.01 0.00 0.00 0.00 0.00 0.00 0.00 0.00 0.00 0.00 0.00 0.00 0.00 0.00 0.00 0.00 0.00 0.00 0.00 0.00 0.00 0.00 0.00 0.00 0.00 0.00 0.00 0.00 0.00 0.00 0.00 0.00 0.00 0.00 0.00 0.00 0.01 0.03 0.04 0.04 0.03 0.02
0.01 0.01 0.00 0.00 0.00 0.00 0.00 0.00 0.00 0.00 0.00 0.00 0.00 0.00 0.00 0.00 0.00 0.00 0.00 0.00 0.00 0.00 0.00 0.00 0.00 0.00 0.00 0.00 0.00 0.00 0.00 0.00 0.00 0.00 0.00 0.00 0.02 0.03 0.04 0.03 0.02 0.01 0.00
0.01 0.01 0.00 0.00 0.00 0.00 0.00 0.00 0.00 0.00 0.00 0.00 0.00 0.00 0.00 0.00 0.00 0.00 0.00 0.00 0.00 0.00 0.00 0.00 0.00 0.00 0.00 0.00 0.00 0.00 0.00 0.00 0.00 0.00 0.00 0.02 0.03 0.03 0.02 0.01 0.00 0.00 0.00
0.00 0.00 0.00 0.00 0.00 0.00 0.00 0.00 0.00 0.00 0.00 0.00 0.00 0.00 0.00 0.00 0.00 0.00 0.00 0.00 0.00 0.00 0.00 0.00 0.00 0.00 0.00 0.00 0.00 0.00 0.00 0.00 0.00 0.00 0.00 0.01 0.01 0.01 0.00 0.00 0.00 0.00 0.00
0.00 0.00 0.00 0.00 0.00 0.00 0.00 0.00 0.00 0.00 0.00 0.00 0.00 0.00 0.00 0.00 0.00 0.00 0.00 0.00 0.00 0.00 0.00 0.00 0.00 0.00 0.00 0.00 0.00 0.00 0.00 0.00 0.00 0.00 0.00 0.00 0.00 0.00 0.00 0.00 0.00 0.00 0.00
0.01 0.00 0.01 0.01 0.00 0.00 0.00 0.00 0.00 0.00 0.00 0.00 0.00 0.00 0.00 0.00 0.00 0.00 0.00 0.00 0.00 0.00 0.00 0.00 0.00 0.00 0.00 0.00 0.00 0.00 0.00 0.00 0.00 0.00 0.00 0.00 0.00 0.00 0.00 0.00 0.00 0.00 0.00
0.00 0.01 0.01 0.01 0.02 0.01 0.01 0.01 0.01 0.01 0.00 0.00 0.00 0.00 0.00 0.00 0.00 0.00 0.00 0.00 0.00 0.00 0.00 0.00 0.00 0.00 0.00 0.00 0.00 0.00 0.00 0.00 0.00 0.00 0.00 0.00 0.00 0.00 0.00 0.00 0.00 0.00 0.00
0.00 0.01 0.01 0.03 0.04 0.02 0.02 0.02 0.01 0.01 0.01 0.00 0.00 0.00 0.00 0.00 0.00 0.00 0.00 0.00 0.00 0.00 0.00 0.00 0.00 0.00 0.00 0.00 0.00 0.00 0.00 0.00 0.00 0.00 0.00 0.00 0.00 0.00 0.00 0.00 0.00 0.00 0.00
0.00 0.00 0.01 0.02 0.03 0.03 0.03 0.04 0.02 0.02 0.02 0.01 0.01 0.00 0.00 0.00 0.00 0.00 0.00 0.00 0.00 0.00 0.00 0.00 0.00 0.00 0.00 0.00 0.00 0.00 0.00 0.00 0.00 0.00 0.00 0.00 0.00 0.00 0.00 0.00 0.00 0.00 0.00
0.00 0.00 0.00 0.01 0.01 0.03 0.05 0.05 0.04 0.03 0.03 0.03 0.02 0.01 0.00 0.00 0.00 0.00 0.00 0.00 0.00 0.00 0.00 0.00 0.00 0.00 0.00 0.00 0.00 0.00 0.00 0.00 0.00 0.00 0.00 0.00 0.00 0.00 0.00 0.00 0.00 0.00 0.00
0.00 0.00 0.00 0.00 0.01 0.03 0.06 0.07 0.05 0.03 0.03 0.04 0.02 0.01 0.01 0.00 0.00 0.00 0.00 0.00 0.00 0.00 0.00 0.00 0.00 0.00 0.00 0.00 0.00 0.00 0.00 0.00 0.00 0.00 0.00 0.00 0.00 0.00 0.00 0.00 0.00 0.00 0.00
0.00 0.00 0.00 0.00 0.00 0.02 0.03 0.04 0.03 0.01 0.01 0.02 0.03 0.03 0.03 0.02 0.02 0.02 0.01 0.00 0.00 0.00 0.00 0.00 0.00 0.00 0.00 0.00 0.00 0.00 0.00 0.00 0.00 0.00 0.00 0.00 0.00 0.00 0.00 0.00 0.00 0.00 0.00
0.00 0.00 0.00 0.00 0.00 0.00 0.01 0.01 0.01 0.02 0.03 0.04 0.06 0.06 0.05 0.05 0.06 0.03 0.02 0.02 0.01 0.00 0.00 0.00 0.00 0.00 0.00 0.00 0.00 0.00 0.00 0.00 0.00 0.00 0.00 0.00 0.00 0.00 0.00 0.00 0.00 0.00 0.00
0.00 0.00 0.00 0.00 0.00 0.00 0.01 0.02 0.04 0.06 0.06 0.04 0.03 0.02 0.02 0.05 0.08 0.06 0.05 0.04 0.03 0.01 0.00 0.00 0.00 0.00 0.00 0.00 0.00 0.00 0.00 0.00 0.00 0.00 0.00 0.00 0.00 0.00 0.00 0.00 0.00 0.00 0.00
0.00 0.00 0.00 0.00 0.00 0.00 0.00 0.02 0.02 0.02 0.01 0.01 0.01 0.02 0.05 0.08 0.10 0.09 0.08 0.07 0.04 0.02 0.01 0.01 0.00 0.00 0.00 0.00 0.00 0.00 0.00 0.00 0.00 0.00 0.00 0.00 0.00 0.00 0.00 0.00 0.00 0.00 0.00
0.00 0.00 0.00 0.00 0.00 0.00 0.01 0.01 0.02 0.01 0.01 0.01 0.02 0.03 0.05 0.07 0.09 0.09 0.10 0.08 0.05 0.03 0.02 0.01 0.00 0.00 0.00 0.00 0.00 0.00 0.00 0.00 0.00 0.00 0.00 0.00 0.00 0.00 0.00 0.00 0.00 0.00 0.00
0.00 0.00 0.00 0.00 0.00 0.00 0.00 0.01 0.01 0.01 0.01 0.02 0.03 0.04 0.05 0.06 0.07 0.08 0.09 0.09 0.08 0.06 0.04 0.02 0.01 0.00 0.00 0.00 0.00 0.00 0.00 0.00 0.00 0.00 0.00 0.00 0.00 0.00 0.00 0.00 0.00 0.00 0.00
MSLP
1013.49 1013.29 1013.25 1013.36 1013.61 1013.95 1014.31 1014.64 1014.90 1015.09 1015.23 1015.35 1015.49 1015.70 1015.96 1016.28 1016.60 1016.89 1017.10 1017.22 1017.25 1017.23 1017.20 1017.19 1017.25 1017.38 1017.57 1017.79 1018.01 1018.19 1018.31 1018.39 1018.43 1018.45 1018.49 1018.56 1018.65 1018.76 1018.86 1018.94 1018.99 1019.00 1018.99
1013.34 1013.22 1013.22 1013.37 1013.65 1014.00 1014.37 1014.72 1015.00 1015.22 1015.39 1015.55 1015.73 1015.97 1016.26 1016.59 1016.93 1017.22 1017.43 1017.55 1017.59 1017.58 1017.55 1017.55 1017.60 1017.72 1017.89 1018.08 1018.27 1018.42 1018.53 1018.60 1018.64 1018.69 1018.74 1018.82 1018.92 1019.01 1019.09 1019.14 1019.14 1019.12 1019.08
1013.14 1013.09 1013.16 1013.36 1013.67 1014.05 1014.45 1014.82 1015.13 1015.38 1015.59 1015.78 1015.99 1016.26 1016.56 1016.89 1017.22 1017.50 1017.70 1017.81 1017.85 1017.84 1017.83 1017.84 1017.91 1018.02 1018.18 1018.35 1018.50 1018.63 1018.73 1018.79 1018.85 1018.91 1018.98 1019.07 1019.17 1019.25 1019.30 1019.31 1019.28 1019.22 1019.16
1012.94 1012.98 1013.11 1013.37 1013.72 1014.14 1014.56 1014.96 1015.30 1015.57 1015.80 1016.02 1016.25 1016.52 1016.82 1017.13 1017.43 1017.68 1017.86 1017.97 1018.01 1018.02 1018.03 1018.07 1018.15 1018.28 1018.43 1018.59 1018.73 1018.84 1018.92 1018.99 1019.05 1019.12 1019.21 1019.30 1019.39 1019.45 1019.47 1019.45 1019.38 1019.30 1019.22
1012.81 1012.92 1013.13 1013.45 1013.85 1014.29 1014.73 1015.14 1015.49 1015.77 1016.01 1016.24 1016.47 1016.73 1017.02 1017.30 1017.57 1017.79 1017.95 1018.04 1018.09 1018.13 1018.17 1018.25 1018.36 1018.51 1018.67 1018.83 1018.96 1019.06 1019.13 1019.20 1019.26 1019.33 1019.42 1019.50 1019.57 1019.61 1019.61 1019.55 1019.46 1019.36 1019.27
1012.77 1012.96 1013.24 1013.61 1014.04 1014.50 1014.95 1015.34 1015.68 1015.95 1016.19 1016.41 1016.63 1016.88 1017.14 1017.41 1017.65 1017.84 1017.99 1018.08 1018.15 1018.21 1018.29 1018.41 1018.56 1018.73 1018.91 1019.07 1019.20 1019.30 1019.36 1019.42 1019.47 1019.53 1019.60 1019.67 1019.72 1019.74 1019.70 1019.63 1019.53 1019.42 1019.34
1012.85 1013.10 1013.44 1013.84 1014.29 1014.75 1015.17 1015.54 1015.84 1016.09 1016.31 1016.51 1016.73 1016.97 1017.23 1017.48 1017.70 1017.89 1018.03 1018.14 1018.23 1018.32 1018.44 1018.59 1018.78 1018.98 1019.18 1019.34 1019.47 1019.56 1019.61 1019.65 1019.69 1019.73 1019.78 1019.83 1019.85 1019.84 1019.79 1019.70 1019.60 1019.51 1019.45
1013.01 1013.30 1013.68 1014.10 1014.55 1014.99 1015.38 1015.70 1015.96 1016.17 1016.36 1016.56 1016.78 1017.03 1017.29 1017.55 1017.79 1017.98 1018.14 1018.26 1018.37 1018.49 1018.64 1018.82 1019.03 1019.25 1019.46 1019.63 1019.75 1019.83 1019.87 1019.88 1019.90 1019.92 1019.95 1019.97 1019.97 1019.95 1019.89 1019.81 1019.73 1019.66 1019.63
1013.20 1013.52 1013.91 1014.34 1014.78 1015.18 1015.52 1015.80 1016.01 1016.19 1016.36 1016.56 1016.80 1017.07 1017.36 1017.65 1017.92 1018.14 1018.31 1018.45 1018.58 1018.72 1018.89 1019.09 1019.32 1019.54 1019.75 1019.92 1020.03 1020.09 1020.12 1020.12 1020.12 1020.12 1020.12 1020.13 1020.12 1020.09 1020.05 1019.99 1019.93 1019.90 1019.92
1013.36 1013.69 1014.09 1014.51 1014.93 1015.29 1015.59 1015.82 1016.00 1016.16 1016.33 1016.55 1016.81 1017.12 1017.46 1017.79 1018.09 1018.34 1018.54 1018.70 1018.84 1018.99 1019.17 1019.38 1019.60 1019.83 1020.03 1020.19 1020.30 1020.35 1020.36 1020.35 1020.33 1020.32 1020.31 1020.31 1020.31 1020.30 1020.27 1020.25 1020.23 1020.25 1020.30
1013.47 1013.79 1014.18 1014.59 1014.98 1015.32 1015.58 1015.79 1015.95 1016.10 1016.29 1016.53 1016.84 1017.19 1017.57 1017.95 1018.28 1018.56 1018.78 1018.95 1019.11 1019.26 1019.44 1019.64 1019.86 1020.09 1020.29 1020.44 1020.54 1020.59 1020.59 1020.58 1020.55 1020.54 1020.53 1020.54 1020.56 1020.57 1020.58 1020.59 1020.62 1020.67 1020.75
1013.49 1013.80 1014.18 1014.57 1014.94 1015.25 1015.50 1015.69 1015.86 1016.03 1016.24 1016.51 1016.86 1017.26 1017.68 1018.08 1018.44 1018.74 1018.98 1019.16 1019.32 1019.48 1019.66 1019.87 1020.09 1020.31 1020.51 1020.67 1020.77 1020.82 1020.83 1020.81 1020.79 1020.78 1020.79 1020.81 1020.85 1020.90 1020.95 1021.00 1021.06 1021.14 1021.24
1013.45 1013.73 1014.08 1014.45 1014.80 1015.10 1015.35 1015.55 1015.73 1015.93 1016.18 1016.49 1016.86 1017.29 1017.73 1018.16 1018.53 1018.84 1019.09 1019.28 1019.45 1019.63 1019.82 1020.04 1020.27 1020.51 1020.72 1020.89 1021.00 1021.06 1021.08 1021.07 1021.06 1021.06 1021.08 1021.13 1021.19 1021.27 1021.35 1021.44 1021.53 1021.62 1021.72
1013.34 1013.59 1013.90 1014.24 1014.58 1014.87 1015.13 1015.35 1015.56 1015.80 1016.08 1016.42 1016.82 1017.26 1017.70 1018.13 1018.50 1018.82 1019.08 1019.29 1019.49 1019.69 1019.91 1020.16 1020.43 1020.69 1020.93 1021.13 1021.26 1021.34 1021.37 1021.38 1021.37 1021.38 1021.41 1021.47 1021.55 1021.65 1021.76 1021.87 1021.97 1022.07 1022.15
1013.16 1013.37 1013.64 1013.95 1014.26 1014.56 1014.83 1015.08 1015.33 1015.60 1015.92 1016.28 1016.69 1017.12 1017.56 1017.97 1018.34 1018.67 1018.94 1019.19 1019.43 1019.69 1019.97 1020.27 1020.59 1020.89 1021.17 1021.40 1021.56 1021.67 1021.71 1021.72 1021.73 1021.74 1021.77 1021.83 1021.92 1022.03 1022.15 1022.26 1022.37 1022.45 1022.51
1012.92 1013.08 1013.30 1013.56 1013.85 1014.14 1014.43 1014.71 1015.00 1015.31 1015.65 1016.03 1016.43 1016.85 1017.27 1017.67 1018.05 1018.39 1018.70 1019.00 1019.31 1019.64 1019.99 1020.37 1020.75 1021.12 1021.44 1021.71 1021.90 1022.03 1022.09 1022.11 1022.11 1022.12 1022.15 1022.21 1022.29 1022.40 1022.51 1022.61 1022.70 1022.77 1022.81
1012.61 1012.70 1012.87 1013.08 1013.34 1013.62 1013.92 1014.24 1014.56 1014.90 1015.26 1015.65 1016.04 1016.45 1016.85 1017.25 1017.63 1018.00 1018.37 1018.75 1019.14 1019.56 1020.00 1020.46 1020.91 1021.34 1021.71 1022.02 1022.24 1022.39 1022.47 1022.50 1022.51 1022.52 1022.54 1022.58 1022.65 1022.74 1022.84 1022.93 1023.00 1023.04 1023.05
1012.23 1012.26 1012.35 1012.51 1012.73 1013.00 1013.31 1013.65 1014.00 1014.37 1014.75 1015.13 1015.52 1015.91 1016.30 1016.71 1017.11 1017.53 1017.97 1018.44 1018.93 1019.44 1019.98 1020.51 1021.03 1021.51 1021.93 1022.27 1022.52 1022.70 1022.80 1022.85 1022.87 1022.88 1022.90 1022.94 1023.00 1023.07 1023.15 1023.22 1023.27 1023.29 1023.28
1011.79 1011.75 1011.77 1011.88 1012.06 1012.31 1012.62 1012.97 1013.34 1013.73 1014.11 1014.50 1014.88 1015.26 1015.66 1016.07 1016.52 1017.00 1017.52 1018.07 1018.65 1019.26 1019.87 1020.47 1021.04 1021.56 1022.01 1022.38 1022.67 1022.88 1023.02 1023.10 1023.16 1023.19 1023.22 1023.27 1023.32 1023.39 1023.45 1023.51 1023.54 1023.54 1023.51
1011.34 1011.22 1011.18 1011.22 1011.36 1011.59 1011.89 1012.24 1012.63 1013.02 1013.40 1013.78 1014.15 1014.53 1014.94 1015.38 1015.86 1016.40 1016.99 1017.63 1018.29 1018.97 1019.64 1020.28 1020.88 1021.43 1021.90 1022.30 1022.63 1022.88 1023.07 1023.21 1023.32 1023.40 1023.47 1023.54 1023.61 1023.68 1023.74 1023.78 1023.80 1023.79 1023.74
1010.90 1010.72 1010.61 1010.60 1010.69 1010.89 1011.18 1011.52 1011.90 1012.28 1012.66 1013.02 1013.38 1013.75 1014.16 1014.62 1015.15 1015.74 1016.39 1017.09 1017.80 1018.53 1019.23 1019.89 1020.50 1021.06 1021.55 1021.98 1022.35 1022.66 1022.93 1023.15 1023.33 1023.49 1023.62 1023.73 1023.83 1023.92 1023.99 1024.04 1024.06 1024.04 1023.98
1010.55 1010.31 1010.14 1010.07 1010.12 1010.28 1010.54 1010.85 1011.21 1011.56 1011.91 1012.25 1012.59 1012.95 1013.36 1013.84 1014.39 1015.01 1015.70 1016.44 1017.18 1017.92 1018.63 1019.29 1019.90 1020.45 1020.96 1021.42 1021.84 1022.23 1022.58 1022.90 1023.19 1023.43 1023.65 1023.83 1023.98 1024.10 1024.19 1024.25 1024.27 1024.25 1024.19
1010.31 1010.02 1009.79 1009.67 1009.67 1009.79 1010.00 1010.28 1010.58 1010.90 1011.20 1011.50 1011.81 1012.15 1012.55 1013.03 1013.59 1014.23 1014.94 1015.69 1016.44 1017.17 1017.86 1018.51 1019.11 1019.66 1020.18 1020.68 1021.16 1021.63 1022.08 1022.50 1022.89 1023.24 1023.55 1023.80 1024.01 1024.17 1024.29 1024.37 1024.41 1024.40 1024.34
1010.19 1009.85 1009.58 1009.41 1009.36 1009.42 1009.57 1009.79 1010.04 1010.29 1010.54 1010.79 1011.05 1011.37 1011.75 1012.21 1012.78 1013.42 1014.13 1014.87 1015.61 1016.32 1016.99 1017.62 1018.20 1018.76 1019.30 1019.84 1020.39 1020.94 1021.48 1022.01 1022.50 1022.95 1023.33 1023.66 1023.93 1024.14 1024.30 1024.40 1024.46 1024.47 1024.42
1010.15 1009.79 1009.48 1009.26 1009.15 1009.15 1009.23 1009.37 1009.55 1009.73 1009.91 1010.10 1010.32 1010.60 1010.96 1011.42 1011.97 1012.61 1013.31 1014.03 1014.76 1015.45 1016.11 1016.72 1017.30 1017.87 1018.44 1019.03 1019.64 1020.26 1020.89 1021.50 1022.07 1022.59 1023.04 1023.43 1023.74 1023.99 1024.19 1024.33 1024.41 1024.44 1024.41
1010.16 1009.77 1009.43 1009.16 1009.00 1008.93 1008.93 1008.99 1009.08 1009.19 1009.30 1009.44 1009.62 1009.87 1010.21 1010.66 1011.21 1011.84 1012.53 1013.24 1013.96 1014.64 1015.29 1015.90 1016.50 1017.09 1017.70 1018.34 1019.00 1019.69 1020.38 1021.04 1021.66 1022.23 1022.72 1023.13 1023.48 1023.76 1023.99 1024.16 1024.28 1024.34 1024.34
Thickness
5757 5759 5757 5754 5752 5750 5748 5747 5745 5744 5742 5740 5738 5736 5734 5733 5732 5731 5730 5730 5730 5730 5730 5729 5728 5727 5725 5724 5723 5722 5721 5719 5718 5717 5717 5716 5716 5715 5713 5712 5710 5709 5709
5759 5757 5754 5751 5749 5746 5744 5743 5741 5739 5737 5735 5733 5731 5730 5728 5728 5727 5726 5726 5726 5726 5726 5725 5723 5721 5720 5719 5717 5716 5715 5714 5713 5712 5712 5711 5711 5710 5709 5708 5706 5706 5705
5756 5753 5750 5748 5745 5742 5740 5738 5737 5735 5733 5731 5729 5727 5725 5724 5723 5722 5721 5721 5721 5720 5720 5719 5718 5716 5714 5713 5712 5711 5710 5709 5708 5708 5707 5706 5706 5705 5704 5703 5702 5701 5701
5753 5749 5747 5744 5741 5738 5736 5735 5733 5731 5729 5727 5725 5723 5721 5719 5718 5717 5716 5716 5715 5714 5713 5712 5711 5710 5709 5707 5706 5705 5704 5704 5704 5703 5702 5702 5701 5701 5700 5699 5698 5697 5696
5748 5745 5743 5740 5737 5734 5732 5731 5729 5727 5725 5723 5721 5719 5717 5715 5714 5712 5711 5710 5709 5708 5707 5706 5705 5704 5703 5702 5701 5700 5700 5699 5699 5699 5697 5697 5696 5697 5696 5695 5694 5693 5692
5743 5741 5738 5736 5733 5730 5729 5727 5725 5724 5722 5719 5717 5714 5712 5711 5710 5708 5706 5704 5703 5702 5701 5700 5699 5698 5698 5697 5696 5695 5695 5695 5695 5694 5693 5692 5692 5692 5692 5691 5690 5689 5688
5738 5736 5733 5731 5729 5727 5725 5723 5722 5720 5718 5715 5713 5710 5708 5707 5705 5703 5701 5699 5698 5698 5697 5696 5694 5693 5692 5691 5691 5690 5690 5690 5690 5689 5688 5687 5687 5688 5687 5686 5685 5685 5683
5734 5731 5729 5727 5725 5723 5721 5719 5717 5716 5714 5712 5709 5707 5705 5703 5701 5699 5697 5695 5694 5693 5692 5691 5690 5688 5687 5686 5685 5685 5685 5685 5684 5683 5682 5682 5682 5683 5682 5681 5680 5679 5677
5728 5727 5725 5723 5721 5719 5717 5715 5713 5711 5709 5707 5705 5703 5701 5699 5697 5695 5693 5691 5690 5689 5688 5686 5685 5683 5681 5681 5680 5680 5680 5679 5678 5677 5676 5677 5677 5677 5676 5675 5673 5672 5670
5722 5721 5720 5719 5717 5716 5713 5711 5708 5706 5704 5703 5701 5699 5697 5695 5693 5691 5689 5687 5685 5684 5683 5681 5680 5678 5676 5675 5675 5675 5674 5674 5672 5671 5671 5671 5671 5671 5669 5667 5665 5664 5662
5714 5714 5714 5713 5712 5711 5710 5707 5704 5702 5700 5698 5696 5694 5693 5691 5689 5687 5684 5682 5680 5679 5677 5676 5674 5672 5671 5669 5669 5669 5668 5667 5666 5666 5665 5665 5664 5663 5661 5658 5656 5655 5654
5709 5709 5709 5709 5708 5706 5705 5703 5700 5698 5695 5693 5691 5690 5688 5687 5685 5683 5680 5678 5675 5673 5672 5670 5668 5667 5665 5664 5663 5662 5661 5660 5660 5659 5658 5658 5656 5654 5651 5649 5647 5646 5644
5706 5705 5705 5704 5703 5702 5700 5698 5696 5694 5692 5690 5688 5686 5684 5682 5680 5678 5675 5673 5670 5668 5666 5664 5663 5661 5660 5658 5657 5655 5654 5653 5652 5651 5650 5649 5648 5645 5642 5639 5638 5636 5635
5701 5701 5700 5699 5698 5697 5695 5694 5693 5691 5688 5686 5685 5683 5680 5677 5675 5673 5671 5668 5665 5663 5660 5659 5657 5655 5653 5652 5650 5649 5647 5645 5644 5643 5642 5640 5638 5636 5633 5630 5628 5626 5625
5697 5698 5697 5696 5694 5693 5691 5690 5689 5687 5685 5684 5682 5680 5677 5674 5671 5668 5666 5663 5660 5658 5655 5653 5651 5648 5647 5645 5643 5642 5639 5637 5636 5635 5633 5631 5629 5627 5624 5622 5620 5618 5617
5695 5695 5694 5693 5692 5690 5689 5687 5686 5684 5682 5680 5679 5677 5674 5671 5667 5664 5661 5658 5655 5653 5650 5647 5645 5642 5640 5638 5636 5634 5632 5630 5628 5626 5624 5622 5620 5618 5615 5613 5611 5609 5608
5692 5693 5692 5692 5690 5688 5687 5685 5683 5681 5679 5678 5676 5674 5672 5668 5664 5661 5657 5654 5651 5648 5645 5642 5638 5635 5633 5631 5628 5626 5624 5622 5620 5618 5615 5613 5611 5609 5607 5605 5603 5601 5599
5688 5689 5691 5691 5689 5687 5685 5683 5681 5679 5676 5675 5673 5671 5669 5666 5662 5658 5654 5650 5647 5644 5640 5637 5632 5628 5625 5623 5620 5618 5616 5614 5612 5609 5607 5604 5602 5600 5598 5596 5594 5592 5591
5683 5686 5687 5688 5688 5687 5685 5682 5679 5677 5674 5673 5671 5669 5667 5663 5660 5656 5652 5648 5643 5639 5635 5632 5626 5623 5618 5616 5613 5610 5609 5607 5604 5602 5599 5596 5593 5591 5589 5587 5585 5583 5582
5679 5680 5682 5683 5685 5685 5682 5679 5675 5673 5672 5670 5668 5667 5664 5661 5658 5654 5650 5645 5640 5635 5630 5626 5621 5617 5613 5610 5607 5603 5600 5598 5596 5594 5591 5588 5585 5582 5580 5578 5576 5574 5572
5672 5674 5676 5678 5680 5680 5677 5675 5672 5672 5671 5669 5667 5664 5661 5659 5656 5651 5647 5641 5637 5633 5628 5623 5617 5611 5606 5603 5599 5594 5591 5589 5587 5586 5583 5580 5577 5574 5572 5569 5567 5565 5563
5667 5669 5671 5673 5675 5675 5676 5675 5674 5672 5671 5669 5666 5662 5660 5657 5654 5649 5645 5640 5634 5629 5624 5619 5615 5607 5602 5598 5595 5589 5584 5580 5579 5577 5575 5573 5570 5567 5564 5561 5559 5556 5554
5660 5662 5665 5667 5669 5670 5670 5669 5667 5664 5663 5660 5659 5659 5659 5655 5650 5646 5642 5637 5632 5628 5623 5618 5614 5608 5599 5592 5591 5589 5581 5577 5572 5568 5566 5564 5562 5559 5556 5553 5550 5547 5545
5652 5654 5656 5659 5661 5662 5662 5661 5660 5660 5660 5661 5660 5658 5654 5651 5647 5643 5639 5635 5630 5626 5622 5617 5612 5608 5601 5590 5584 5582 5580 5577 5569 5561 5556 5554 5552 5550 5547 5544 5541 5538 5536
5641 5643 5645 5648 5650 5652 5653 5654 5654 5655 5656 5655 5654 5651 5648 5645 5643 5640 5636 5631 5627 5624 5619 5614 5608 5604 5600 5592 5584 5576 5570 5565 5563 5560 5552 5546 5543 5541 5538 5535 5531 5528 5526
5632 5633 5634 5636 5638 5640 5642 5644 5646 5647 5648 5646 5645 5643 5640 5636 5634 5633 5630 5627 5624 5620 5615 5610 5604 5600 5596 5591 5584 5578 5571 5564 5557 5553 5547 5539 5534 5530 5528 5525 5522 5518 5515